AV194 Weather Reports


Display with metric or nautical units.
time (UTC)temp
F
wind
direction
speed
MPH
gust
MPH
rain 1hr
in
rain 24hr
in
rain mn
in
humidity
%
barometer
mb
20260831085008 59 329 0.0 0.0 0.00 0.00 0.00 92 1017.7
20260831084505 59 329 0.0 0.0 0.00 0.00 0.00 92 1017.7
20260831084003 60 329 0.0 1.0 0.00 0.00 0.00 92 1017.8
20260831083502 60 329 0.0 1.0 0.00 0.00 0.00 92 1017.8
20260831083002 60 329 0.0 1.0 0.00 0.00 0.00 92 1017.7
20260831082501 60 329 0.0 1.0 0.00 0.00 0.00 92 1017.7
20260831082101 60 246 0.0 1.0 0.00 0.00 0.00 92 1017.7
20260831081600 60 246 0.0 1.0 0.00 0.00 0.00 92 1017.6
20260831081100 60 250 0.0 1.0 0.00 0.00 0.00 92 1017.6
20260831080559 61 351 0.0 0.0 0.00 0.00 0.00 92 1017.5
20260831080105 61 351 0.0 1.0 0.00 0.00 0.00 92 1017.5
20260831075556 61 351 0.0 1.0 0.00 0.00 0.00 92 1017.5
20260831075056 61 355 0.0 0.0 0.00 0.00 0.00 92 1017.5
20260831074555 61 355 0.0 0.0 0.00 0.00 0.00 92 1017.4
20260831074054 61 355 0.0 0.0 0.00 0.00 0.00 92 1017.3
20260831073553 61 355 0.0 1.0 0.00 0.00 0.00 92 1017.3
20260831073054 62 355 0.0 2.0 0.00 0.00 0.00 92 1017.3
20260831072551 62 355 0.0 2.0 0.00 0.00 0.00 92 1017.3
20260831072051 62 277 0.0 1.0 0.00 0.00 0.00 92 1017.3
20260831071550 62 277 0.0 1.0 0.00 0.00 0.00 92 1017.3
20260831071050 62 329 0.0 1.0 0.00 0.00 0.00 92 1017.2
20260831070549 62 329 0.0 2.0 0.00 0.00 0.00 92 1017.1
20260831070056 62 329 0.0 2.0 0.00 0.00 0.00 92 1017.1
20260831065550 62 300 0.0 2.0 0.00 0.00 0.00 91 1017.2
20260831065050 62 207 0.0 1.0 0.00 0.00 0.00 91 1017.2
20260831064547 63 207 0.0 1.0 0.00 0.00 0.00 91 1017.2
20260831064046 63 207 0.0 0.0 0.00 0.00 0.00 91 1017.0
20260831063545 63 207 0.0 1.0 0.00 0.00 0.00 91 1017.1
20260831063045 63 207 0.0 1.0 0.00 0.00 0.00 91 1017.1
20260831062548 63 207 0.0 1.0 0.00 0.00 0.00 91 1017.1
20260831062044 63 207 0.0 1.0 0.00 0.00 0.00 91 1017.1
20260831061544 63 207 0.0 1.0 0.00 0.00 0.00 91 1017.1
20260831061043 63 207 0.0 2.0 0.00 0.00 0.00 91 1017.0
20260831060542 63 194 1.0 2.0 0.00 0.00 0.00 91 1017.0
20260831060042 64 129 0.0 0.0 0.00 0.00 0.00 90 1017.0
20260831055541 64 128 0.0 0.0 0.00 0.00 0.00 90 1017.0
20260831055040 64 128 0.0 0.0 0.00 0.00 0.00 90 1016.9
20260831054540 64 128 0.0 0.0 0.00 0.00 0.00 90 1016.9
20260831054040 64 129 0.0 0.0 0.00 0.00 0.00 90 1016.9
20260831053540 64 129 0.0 1.0 0.00 0.00 0.00 89 1016.9
20260831053037 65 126 0.0 1.0 0.00 0.00 0.00 89 1016.8
20260831052541 65 130 0.0 1.0 0.00 0.00 0.00 89 1016.7
20260831052035 65 130 0.0 2.0 0.00 0.00 0.00 89 1016.7
20260831051540 65 130 0.0 2.0 0.00 0.00 0.00 89 1016.7
20260831051035 65 82 0.0 1.0 0.00 0.00 0.00 89 1016.7
20260831050535 65 45 0.0 1.0 0.00 0.00 0.00 89 1016.8
20260831050034 65 35 0.0 0.0 0.00 0.00 0.00 88 1016.8
20260831045533 65 35 0.0 1.0 0.00 0.00 0.00 88 1016.7
20260831045035 65 35 0.0 1.0 0.00 0.00 0.00 88 1016.7
20260831044536 66 35 0.0 1.0 0.00 0.00 0.00 88 1016.7
20260831044030 66 35 0.0 1.0 0.00 0.00 0.00 87 1016.5
20260831043530 66 35 0.0 0.0 0.00 0.00 0.00 87 1016.3
20260831043028 66 35 0.0 1.0 0.00 0.00 0.00 86 1016.1
20260831042627 66 35 0.0 1.0 0.00 0.00 0.00 86 1016.2
20260831042026 67 32 0.0 1.0 0.00 0.00 0.00 86 1016.1
20260831041536 67 32 0.0 1.0 0.00 0.00 0.00 85 1016.2
20260831041029 67 32 0.0 0.0 0.00 0.00 0.00 85 1016.1
20260831040524 67 32 0.0 1.0 0.00 0.00 0.00 84 1016.1
20260831040024 68 32 0.0 1.0 0.00 0.00 0.00 84 1016.1
20260831035526 68 32 0.0 1.0 0.00 0.00 0.00 84 1016.2
20260831035025 68 32 0.0 0.0 0.00 0.00 0.00 84 1016.1
20260831034523 69 32 0.0 1.0 0.00 0.00 0.00 84 1016.2
20260831034022 69 32 0.0 1.0 0.00 0.00 0.00 83 1016.1
20260831033522 69 32 0.0 0.0 0.00 0.00 0.00 83 1016.1
20260831033022 69 32 0.0 0.0 0.00 0.00 0.00 83 1016.2
20260831032522 69 32 0.0 0.0 0.00 0.00 0.00 82 1016.2
20260831032022 69 32 0.0 1.0 0.00 0.00 0.00 82 1016.2
20260831031526 69 32 0.0 1.0 0.00 0.00 0.00 82 1016.3
20260831031022 69 21 0.0 1.0 0.00 0.00 0.00 83 1016.3
20260831030525 69 22 0.0 2.0 0.00 0.00 0.00 83 1016.3
20260831030021 69 53 0.0 2.0 0.00 0.00 0.00 83 1016.4
20260831025521 69 28 0.0 2.0 0.00 0.00 0.00 83 1016.3
20260831025021 69 67 0.0 0.0 0.00 0.00 0.00 83 1016.2
20260831024526 69 67 0.0 0.0 0.00 0.00 0.00 84 1016.1
20260831024023 69 67 0.0 0.0 0.00 0.00 0.00 85 1016.1
20260831023522 69 67 0.0 0.0 0.00 0.00 0.00 85 1016.1
20260831023020 69 67 0.0 0.0 0.00 0.00 0.00 85 1015.9
20260831022520 69 42 0.0 0.0 0.00 0.00 0.00 85 1016.0
20260831022020 69 42 0.0 0.0 0.00 0.00 0.00 86 1016.0
20260831021531 69 42 0.0 0.0 0.00 0.00 0.00 86 1016.0
20260831021020 69 55 0.0 0.0 0.00 0.00 0.00 86 1016.0
20260831020520 70 53 0.0 0.0 0.00 0.00 0.00 86 1016.0
20260831020020 70 170 0.0 0.0 0.00 0.00 0.00 86 1016.0
20260831015521 70 170 0.0 0.0 0.00 0.00 0.00 86 1015.9
20260831015019 70 170 0.0 0.0 0.00 0.00 0.00 86 1015.9
20260831014520 70 170 0.0 0.0 0.00 0.00 0.00 86 1015.8
20260831014019 70 170 0.0 0.0 0.00 0.00 0.00 86 1015.8
20260831013518 70 170 0.0 0.0 0.00 0.00 0.00 85 1015.8
20260831013024 70 170 0.0 0.0 0.00 0.00 0.00 85 1015.8
20260831012518 70 170 0.0 0.0 0.00 0.00 0.00 85 1015.7
20260831012020 70 170 0.0 0.0 0.00 0.00 0.00 84 1015.7
20260831011519 70 170 0.0 0.0 0.00 0.00 0.00 84 1015.6
20260831011018 70 170 0.0 0.0 0.00 0.00 0.00 84 1015.5
20260831010517 70 170 0.0 0.0 0.00 0.00 0.00 83 1015.4
20260831010017 70 170 0.0 0.0 0.00 0.00 0.00 84 1015.3
20260831005517 70 170 0.0 0.0 0.00 0.00 0.00 83 1015.4
20260831005017 70 170 0.0 0.0 0.00 0.00 0.00 82 1015.3
20260831004517 71 170 0.0 1.0 0.00 0.00 0.00 81 1015.3
20260831004017 71 170 0.0 1.0 0.00 0.00 0.00 81 1015.2
20260831003516 71 170 0.0 1.0 0.00 0.00 0.00 81 1015.0
20260831003017 71 170 0.0 0.0 0.00 0.00 0.00 81 1014.9
20260831002515 71 170 0.0 0.0 0.00 0.00 0.00 81 1015.0
20260831002015 71 170 0.0 0.0 0.00 0.00 0.00 80 1014.9
20260831001515 71 170 0.0 0.0 0.00 0.00 0.00 80 1014.8
20260831001016 71 170 0.0 1.0 0.00 0.00 0.00 79 1014.8
20260831000516 71 170 0.0 1.0 0.00 0.00 0.00 79 1014.6
20260831000031 71 170 0.0 1.0 0.00 0.00 0.00 79 1014.5
20260830235514 71 170 0.0 1.0 0.00 0.00 0.00 79 1014.5
20260830235016 71 170 0.0 1.0 0.00 0.00 0.00 78 1014.5
20260830234516 71 170 0.0 0.0 0.00 0.00 0.00 78 1014.5
20260830234014 72 170 0.0 1.0 0.00 0.00 0.00 78 1014.6
20260830233513 72 170 0.0 1.0 0.00 0.00 0.00 77 1014.4
20260830233019 72 170 0.0 1.0 0.00 0.00 0.00 77 1014.4
20260830232513 72 170 0.0 1.0 0.00 0.00 0.00 77 1014.3
20260830232016 72 170 0.0 1.0 0.00 0.00 0.00 77 1014.4
20260830231612 72 170 0.0 0.0 0.00 0.00 0.00 77 1014.4
20260830231011 72 170 0.0 0.0 0.00 0.00 0.00 76 1014.4
20260830230511 72 170 0.0 0.0 0.00 0.00 0.00 76 1014.5
20260830230014 73 170 0.0 1.0 0.00 0.00 0.00 74 1014.6
20260830225510 73 170 0.0 1.0 0.00 0.00 0.00 75 1014.5
20260830225013 73 170 0.0 1.0 0.00 0.00 0.00 75 1014.6
20260830224509 73 170 0.0 2.0 0.00 0.00 0.00 75 1014.6
20260830224010 73 170 0.0 2.0 0.00 0.00 0.00 74 1014.7
20260830223508 73 146 0.0 4.0 0.00 0.00 0.00 74 1014.8
20260830223008 73 146 0.0 4.0 0.00 0.00 0.00 74 1014.7
20260830222508 73 279 0.0 2.0 0.00 0.00 0.00 73 1014.8
20260830222012 74 213 0.0 2.0 0.00 0.00 0.00 73 1014.9
20260830221509 74 133 0.0 4.0 0.00 0.00 0.00 72 1014.8
20260830221007 74 186 0.0 4.0 0.00 0.00 0.00 72 1014.8
20260830220507 74 211 0.0 2.0 0.00 0.00 0.00 72 1014.8
20260830220011 74 177 0.0 2.0 0.00 0.00 0.00 72 1014.9
20260830215507 74 207 0.0 2.0 0.00 0.00 0.00 71 1014.9
20260830215010 75 236 0.0 2.0 0.00 0.00 0.00 70 1014.8
20260830214507 75 199 0.0 2.0 0.00 0.00 0.00 71 1014.8
20260830214007 75 61 0.0 4.0 0.00 0.00 0.00 71 1014.8
20260830213506 75 217 1.0 4.0 0.00 0.00 0.00 71 1014.8
20260830213005 75 186 1.0 4.0 0.00 0.00 0.00 70 1014.8
20260830212505 75 223 0.0 4.0 0.00 0.00 0.00 70 1014.7
20260830212004 76 227 1.0 4.0 0.00 0.00 0.00 70 1014.8
20260830211510 76 174 0.0 4.0 0.00 0.00 0.00 71 1014.9
20260830211004 76 138 0.0 5.0 0.00 0.00 0.00 71 1014.9
20260830210503 76 150 1.0 5.0 0.00 0.00 0.00 70 1015.0
20260830210003 76 176 1.0 5.0 0.00 0.00 0.00 71 1015.0
20260830205506 76 163 2.0 5.0 0.00 0.00 0.00 71 1015.1
20260830205002 76 175 1.0 4.0 0.00 0.00 0.00 71 1015.1
20260830204503 76 211 0.0 4.0 0.00 0.00 0.00 71 1015.0
20260830204002 76 207 0.0 4.0 0.00 0.00 0.00 70 1015.0
20260830203501 77 186 0.0 3.0 0.00 0.00 0.00 71 1015.0
20260830203001 77 191 0.0 4.0 0.00 0.00 0.00 72 1015.1
20260830202559 77 350 1.0 4.0 0.00 0.00 0.00 72 1015.1
20260830202059 77 149 0.0 4.0 0.00 0.00 0.00 72 1015.1
20260830201600 77 182 1.0 4.0 0.00 0.00 0.00 71 1015.2
20260830201059 76 196 1.0 2.0 0.00 0.00 0.00 72 1015.2
20260830200559 76 225 0.0 2.0 0.00 0.00 0.00 72 1015.3
20260830200058 76 176 0.0 2.0 0.00 0.00 0.00 72 1015.2
20260830195602 76 205 0.0 1.0 0.00 0.00 0.00 72 1015.2
20260830195102 76 217 0.0 2.0 0.00 0.00 0.00 73 1015.3
20260830194556 76 216 0.0 2.0 0.00 0.00 0.00 73 1015.4
20260830194058 75 227 0.0 2.0 0.00 0.00 0.00 73 1015.6
20260830193554 75 182 0.0 2.0 0.00 0.00 0.00 73 1015.6
20260830193055 75 41 0.0 2.0 0.00 0.00 0.00 72 1015.7
20260830192552 75 119 0.0 0.0 0.00 0.00 0.00 72 1015.8
20260830192056 75 119 0.0 0.0 0.00 0.00 0.00 72 1015.9
20260830191552 75 119 0.0 0.0 0.00 0.00 0.00 73 1016.1
20260830191051 75 119 0.0 0.0 0.00 0.00 0.00 72 1016.0
20260830190551 75 119 0.0 0.0 0.00 0.00 0.00 71 1016.0
20260830190050 75 119 0.0 1.0 0.00 0.00 0.00 71 1016.2
20260830185550 75 119 0.0 1.0 0.00 0.00 0.00 69 1016.2
20260830185049 76 119 0.0 2.0 0.00 0.00 0.00 69 1016.2
20260830184550 76 119 0.0 2.0 0.00 0.00 0.00 68 1016.2
20260830184048 76 159 0.0 1.0 0.00 0.00 0.00 68 1016.2
20260830183549 77 133 0.0 2.0 0.00 0.00 0.00 67 1016.3
20260830183048 77 126 1.0 2.0 0.00 0.00 0.00 67 1016.4
20260830182548 77 175 0.0 2.0 0.00 0.00 0.00 66 1016.4
20260830182048 77 91 0.0 2.0 0.00 0.00 0.00 67 1016.5
20260830181548 77 28 0.0 2.0 0.00 0.00 0.00 65 1016.4
20260830181046 77 246 1.0 2.0 0.00 0.00 0.00 66 1016.5
20260830180545 77 127 0.0 2.0 0.00 0.00 0.00 64 1016.7
20260830180049 77 165 0.0 5.0 0.00 0.00 0.00 66 1016.7
20260830175543 77 78 1.0 5.0 0.00 0.00 0.00 65 1016.8
20260830175045 77 86 0.0 4.0 0.00 0.00 0.00 66 1016.9
20260830174544 77 186 0.0 4.0 0.00 0.00 0.00 66 1017.1
20260830174042 77 194 0.0 2.0 0.00 0.00 0.00 67 1017.0
20260830173541 77 147 1.0 5.0 0.00 0.00 0.00 67 1017.1
20260830173041 76 237 0.0 5.0 0.00 0.00 0.00 65 1017.1
20260830172543 77 159 1.0 2.0 0.00 0.00 0.00 66 1017.1
20260830172040 77 219 1.0 2.0 0.00 0.00 0.00 68 1017.2
20260830171539 76 126 0.0 2.0 0.00 0.00 0.00 70 1017.1
20260830171043 76 5 0.0 4.0 0.00 0.00 0.00 68 1017.2
20260830170539 77 121 1.0 4.0 0.00 0.00 0.00 65 1017.3
20260830170037 77 74 1.0 5.0 0.00 0.00 0.00 64 1017.3
20260830165536 76 119 1.0 6.0 0.00 0.00 0.00 69 1017.4
20260830165039 76 35 1.0 4.0 0.00 0.00 0.00 67 1017.5
20260830164555 76 51 0.0 4.0 0.00 0.00 0.00 65 1017.5
20260830164034 76 181 0.0 4.0 0.00 0.00 0.00 68 1017.5
20260830163534 75 202 0.0 4.0 0.00 0.00 0.00 66 1017.7
20260830163035 76 182 0.0 4.0 0.00 0.00 0.00 68 1017.7
20260830162534 76 69 1.0 4.0 0.00 0.00 0.00 68 1017.7
20260830162036 75 82 1.0 4.0 0.00 0.00 0.00 67 1017.8
20260830161534 75 178 1.0 3.0 0.00 0.00 0.00 68 1017.7
20260830161033 74 205 0.0 2.0 0.00 0.00 0.00 72 1017.6
20260830160532 73 127 1.0 3.0 0.00 0.00 0.00 71 1017.9
20260830160032 73 209 1.0 4.0 0.00 0.00 0.00 70 1017.9
20260830155531 74 198 0.0 2.0 0.00 0.00 0.00 69 1017.7
20260830155031 75 184 0.0 2.0 0.00 0.00 0.00 67 1018.0
20260830154531 75 203 1.0 4.0 0.00 0.00 0.00 65 1018.1
20260830154031 76 228 1.0 4.0 0.00 0.00 0.00 66 1017.9
20260830153531 76 53 0.0 4.0 0.00 0.00 0.00 66 1018.0
20260830153033 76 344 1.0 4.0 0.00 0.00 0.00 62 1017.9
20260830152532 76 269 0.0 5.0 0.00 0.00 0.00 62 1018.1
20260830152029 76 196 1.0 5.0 0.00 0.00 0.00 65 1018.1
20260830151527 75 210 0.0 5.0 0.00 0.00 0.00 70 1018.2
20260830151026 75 255 1.0 5.0 0.00 0.00 0.00 70 1018.2
20260830150526 75 123 2.0 5.0 0.00 0.00 0.00 69 1018.2
20260830150026 74 89 1.0 4.0 0.00 0.00 0.00 69 1018.2
20260830145627 74 47 0.0 4.0 0.00 0.00 0.00 69 1018.2
20260830145025 74 129 1.0 4.0 0.00 0.00 0.00 71 1018.1
20260830144525 74 168 1.0 4.0 0.00 0.00 0.00 73 1018.0
20260830144025 74 252 1.0 2.0 0.00 0.00 0.00 72 1017.9
20260830143524 74 210 0.0 2.0 0.00 0.00 0.00 72 1018.0
20260830143024 74 161 0.0 2.0 0.00 0.00 0.00 72 1018.0
20260830142524 75 95 0.0 5.0 0.00 0.00 0.00 71 1018.0
20260830142025 75 196 0.0 5.0 0.00 0.00 0.00 72 1017.9
20260830141533 75 205 0.0 2.0 0.00 0.00 0.00 69 1018.1
20260830141021 75 168 0.0 4.0 0.00 0.00 0.00 69 1018.2
20260830140520 75 187 0.0 5.0 0.00 0.00 0.00 71 1018.3
20260830140019 74 52 0.0 5.0 0.00 0.00 0.00 70 1018.3
20260830135517 73 148 1.0 5.0 0.00 0.00 0.00 75 1018.4
20260830135016 72 195 1.0 5.0 0.00 0.00 0.00 75 1018.5
20260830134525 72 173 0.0 2.0 0.00 0.00 0.00 76 1018.5
20260830134015 71 179 0.0 2.0 0.00 0.00 0.00 77 1018.5
20260830133513 70 176 0.0 2.0 0.00 0.00 0.00 77 1018.4
20260830133011 70 178 0.0 2.0 0.00 0.00 0.00 77 1018.4
20260830132513 70 169 0.0 2.0 0.00 0.00 0.00 78 1018.4
20260830132009 69 171 0.0 2.0 0.00 0.00 0.00 79 1018.5
20260830131508 69 190 0.0 2.0 0.00 0.00 0.00 78 1018.5
20260830131009 68 200 0.0 2.0 0.00 0.00 0.00 80 1018.7
20260830130507 68 200 0.0 2.0 0.00 0.00 0.00 81 1018.7
20260830130010 67 201 0.0 1.0 0.00 0.00 0.00 82 1018.8
20260830125502 66 205 0.0 0.0 0.00 0.00 0.00 83 1018.8
20260830125100 66 204 0.0 0.0 0.00 0.00 0.00 84 1018.9
20260830124559 66 204 0.0 0.0 0.00 0.00 0.00 84 1018.9
20260830124059 66 204 0.0 1.0 0.00 0.00 0.00 85 1019.1
20260830123558 66 204 0.0 1.0 0.00 0.00 0.00 85 1019.2
20260830123121 65 205 0.0 1.0 0.00 0.00 0.00 86 1019.1
20260830122555 65 204 0.0 1.0 0.00 0.00 0.00 86 1019.1
20260830122058 64 217 0.0 1.0 0.00 0.00 0.00 86 1019.1
20260830121557 64 228 0.0 1.0 0.00 0.00 0.00 87 1019.1
20260830121055 63 228 0.0 1.0 0.00 0.00 0.00 87 1019.1
20260830120549 63 228 0.0 1.0 0.00 0.00 0.00 88 1019.1
20260830120047 62 228 0.0 1.0 0.00 0.00 0.00 89 1019.2
20260830115546 61 228 0.0 0.0 0.00 0.00 0.00 89 1019.2
20260830115048 61 228 0.0 0.0 0.00 0.00 0.00 89 1019.2
20260830114554 60 228 0.0 0.0 0.00 0.00 0.00 90 1019.2
20260830114046 60 228 0.0 0.0 0.00 0.00 0.00 90 1019.2
20260830113641 60 228 0.0 0.0 0.00 0.00 0.00 90 1019.3
20260830113040 59 228 0.0 0.0 0.00 0.00 0.00 91 1019.4
20260830112539 59 228 0.0 1.0 0.00 0.00 0.00 91 1019.5
20260830112039 59 228 0.0 1.0 0.00 0.00 0.00 91 1019.4
20260830111537 59 228 0.0 1.0 0.00 0.00 0.00 91 1019.4
20260830111037 58 228 0.0 2.0 0.00 0.00 0.00 91 1019.4
20260830110535 58 228 0.0 2.0 0.00 0.00 0.00 91 1019.4
20260830110034 58 228 0.0 2.0 0.00 0.00 0.00 91 1019.3
20260830105533 58 240 0.0 2.0 0.00 0.00 0.00 91 1019.2
20260830105033 58 193 0.0 1.0 0.00 0.00 0.00 91 1019.1
20260830104537 58 193 0.0 1.0 0.00 0.00 0.00 91 1019.2
20260830104033 58 193 0.0 0.0 0.00 0.00 0.00 91 1019.2
20260830103535 58 193 0.0 0.0 0.00 0.00 0.00 91 1019.2
20260830103035 58 193 0.0 0.0 0.00 0.00 0.00 90 1019.1
20260830102531 58 193 0.0 0.0 0.00 0.00 0.00 90 1019.1
20260830102030 58 193 0.0 0.0 0.00 0.00 0.00 90 1019.1
20260830101529 58 194 0.0 1.0 0.00 0.00 0.00 90 1019.2
20260830101029 58 193 0.0 1.0 0.00 0.00 0.00 90 1019.2
20260830100529 58 194 0.0 1.0 0.00 0.00 0.00 90 1019.3
20260830100028 58 193 0.0 1.0 0.00 0.00 0.00 90 1019.3
20260830095528 58 193 0.0 0.0 0.00 0.00 0.00 90 1019.4
20260830095028 59 193 0.0 0.0 0.00 0.00 0.00 90 1019.2
20260830094533 59 193 0.0 0.0 0.00 0.00 0.00 90 1019.2
20260830094028 59 194 0.0 0.0 0.00 0.00 0.00 90 1019.2
20260830093526 59 193 0.0 0.0 0.00 0.00 0.00 90 1019.3
20260830093027 59 193 0.0 0.0 0.00 0.00 0.00 90 1019.3
20260830092527 59 194 0.0 0.0 0.00 0.00 0.00 90 1019.3
20260830092027 59 193 0.0 0.0 0.00 0.00 0.00 90 1019.3
20260830091526 59 194 0.0 0.0 0.00 0.00 0.00 90 1019.3
20260830091026 59 193 0.0 0.0 0.00 0.00 0.00 90 1019.3
20260830090525 59 193 0.0 0.0 0.00 0.00 0.00 90 1019.4
20260830090024 59 193 0.0 0.0 0.00 0.00 0.00 90 1019.4
20260830085524 59 193 0.0 0.0 0.00 0.00 0.00 90 1019.5